[[{"header":{"parameterUnit":"m.s-1","parameterCategory":1,"la1":30.2991,"la2":30.254,"lo1":-89.0895,"lo2":-89.0444,"dy":0.0017,"dx":0.0017,"nx":28,"ny":28,"refTime":"2025-06-13T21:00:00:Z","depth":0,"parameterNumber":2,"parameterNumberName":"U-component_of_WINDS"},"data":[0,0,0,0,0,0,0,0,0,0,0,0,0,0,0,0,0,0,0,0,0,0,0,0,0,0,0,0,0,0,0,0,0,0,0,0,0,0,0,0,0,0,0,0,0,0,0,0,0,0,0,0,0,0,0,0,0,0,1.7884,1.7886,0,1.8025,1.8027,1.8029,1.8102,1.8102,1.8102,1.8102,1.8248,1.8252,1.8255,0,0,0,0,0,0,0,0,0,0,0,0,0,1.768,1.7683,1.7884,1.7886,1.7888,1.8025,1.8027,1.8029,1.8102,1.8102,1.8102,1.8102,1.8247,1.8251,1.8256,0,0,0,0,0,0,0,0,0,0,0,0,0,1.779,1.7684,1.7884,1.7941,1.7947,1.8025,1.8027,1.8029,1.8102,1.8102,1.8102,1.8102,1.8245,1.8251,1.8256,1.8289,0,0,1.8274,1.8276,0,0,0,0,0,0,0,0,1.7783,1.7797,1.7931,1.7937,1.7944,1.8046,1.8009,1.8116,1.8102,1.8043,1.8102,1.8102,1.8181,1.8192,1.8218,1.8295,1.8302,1.8274,1.8278,1.828,1.8282,0,0,0,0,0,0,0,1.7776,1.7791,1.794,1.7932,1.7941,1.796,1.7975,1.8029,1.8109,1.8048,1.8054,1.8069,1.8185,1.8212,1.8222,1.8304,1.8274,1.8279,1.8283,1.8285,1.8416,1.8416,0,0,0,0,0,0,1.7759,1.7785,1.7936,1.7944,1.7862,1.7963,1.7981,1.8013,1.8109,1.8124,1.8069,1.8072,1.8202,1.8215,1.8227,1.8272,1.828,1.8285,1.8289,1.8416,1.8416,1.8416,0,0,0,0,0,0,1.7754,1.7771,1.793,1.7866,1.7888,1.7967,1.8002,1.8016,1.8044,1.8125,1.814,1.8083,1.8203,1.8219,1.8273,1.8278,1.8288,1.8293,1.8416,1.8416,1.8416,1.836,0,0,0,0,0,0,1.7748,1.7769,1.7782,1.7866,1.7891,1.7972,1.8003,1.8019,1.8053,1.8059,1.8141,1.8155,1.8204,1.8264,1.8278,1.8286,1.8298,1.8416,1.8416,1.8416,1.8362,1.8359,1.8356,0,0,0,0,0,1.774,1.7761,1.7782,1.78,1.7908,1.7972,1.7987,1.8042,1.8053,1.8067,1.8119,1.8153,1.8275,1.8269,1.8286,1.8295,1.8416,1.8416,1.8416,1.8364,1.8359,1.8356,0,0,0,0,0,0,1.7675,1.7773,1.7797,1.7845,1.79,1.7985,1.8003,1.8036,1.8089,1.8092,1.8159,1.8178,1.8225,1.8266,1.8257,1.8332,1.8349,1.8352,1.8303,1.83,1.8296,1.8285,1.8302,0,0,0,0,0,1.7666,1.771,1.7793,1.7827,1.7854,1.7924,1.7954,1.7992,1.8052,1.8075,1.8131,1.8188,1.824,1.8272,1.8324,1.8369,1.8388,1.8383,1.838,1.8377,1.8379,1.8406,1.8405,1.8417,1.8417,1.8417,0,0,1.7648,1.7707,1.7731,1.7816,1.7863,1.7907,1.7943,1.7988,1.8022,1.8082,1.8136,1.8179,1.8248,1.8297,1.8321,1.8332,1.838,1.8377,1.8374,1.8378,1.8406,1.8405,1.8404,1.8417,1.8417,1.8417,0,0,1.7639,1.7687,1.7722,1.7768,1.7839,1.7885,1.7893,1.7973,1.8004,1.806,1.8106,1.8148,1.8235,1.8282,1.8317,1.8326,1.8359,1.8341,1.8323,1.8349,1.8348,1.8348,1.8351,1.8352,1.8343,1.8343,1.8343,0,1.7607,1.7676,1.7735,1.7778,1.7814,1.7871,1.7907,1.7949,1.8033,1.8057,1.8068,1.8179,1.8229,1.829,1.8292,1.8319,1.8331,1.8331,1.8344,1.8344,1.8344,1.8348,1.8349,1.834,1.834,1.8341,1.8341,0,1.7634,1.7681,1.77,1.778,1.7819,1.7857,1.7923,1.7955,1.7991,1.8036,1.8092,1.8154,1.822,1.8237,1.8272,1.8304,1.8309,1.8331,1.8349,1.834,1.8344,1.8346,1.8336,1.8337,1.8338,1.8339,0,0,1.7586,1.7698,1.7704,1.7742,1.7824,1.7862,1.7904,1.7968,1.7994,1.8051,1.8088,1.8161,1.8182,1.8222,1.8263,1.8285,1.8289,1.8305,1.8308,1.83,1.8328,1.8311,1.8311,1.8312,1.8312,1.8313,1.8322,0,1.7587,1.7665,1.772,1.7776,1.7821,1.7876,1.7913,1.7968,1.8012,1.8057,1.8106,1.8157,1.8181,1.8205,1.823,1.8283,1.8295,1.8283,1.8347,1.8349,1.8328,1.8314,1.8296,1.8302,1.8325,1.8325,1.8325,0,1.7599,1.7653,1.7714,1.7793,1.7814,1.7846,1.7909,1.7951,1.8015,1.8046,1.8091,1.8133,1.8181,1.8195,1.8262,1.8252,1.8282,1.8312,1.8314,1.8322,1.8336,1.8321,1.8305,1.8306,1.8329,1.8329,1.8328,0,1.7557,1.7646,1.7694,1.7724,1.7817,1.7839,1.7879,1.7943,1.7978,1.8034,1.8058,1.8118,1.8152,1.8198,1.8256,1.8261,1.8317,1.8336,1.8344,1.8342,1.8353,1.8351,1.8341,1.8372,1.8372,1.8372,1.8372,0,1.7552,1.7587,1.7676,1.7706,1.7747,1.7811,1.785,1.7895,1.7952,1.7991,1.8044,1.808,1.8154,1.82,1.8245,1.8294,1.8309,1.8335,1.8347,1.833,1.8327,1.835,1.8351,1.8372,1.8372,1.8372,1.8372,0,1.7512,1.7573,1.7629,1.7713,1.7735,1.7762,1.7834,1.7865,1.7913,1.7963,1.7978,1.8053,1.8109,1.8172,1.8249,1.828,1.8325,1.8342,1.8303,1.831,1.8314,1.8313,1.8318,1.8322,1.835,1.835,1.835,0,1.7504,1.7532,1.762,1.765,1.7689,1.7737,1.7773,1.7838,1.7874,1.795,1.7972,1.8032,1.8084,1.8172,1.8233,1.8293,1.8311,1.8309,1.8321,1.8303,1.8311,1.8308,1.8312,1.8305,1.8305,1.8304,1.8304,0,1.7484,1.7513,1.7564,1.7625,1.7667,1.7719,1.7772,1.7794,1.787,1.7908,1.7966,1.8006,1.8086,1.8145,1.8212,1.8254,1.8292,1.83,1.8305,1.8288,1.8264,1.8277,1.8294,1.8299,1.83,1.83,1.83,1.83,1.746,1.7488,1.7554,1.7609,1.7656,1.7705,1.7739,1.7791,1.7841,1.791,1.7946,1.8004,1.8069,1.8163,1.8204,1.8251,1.8263,1.827,1.8272,1.8272,1.8268,1.8257,1.8264,1.8264,1.8264,1.8264,1.8265,0,1.7442,1.7488,1.7538,1.7611,1.7655,1.7687,1.7748,1.7783,1.7833,1.789,1.794,1.8008,1.8066,1.8133,1.8195,1.822,1.8239,1.8234,1.8233,1.8242,1.8254,1.8243,1.8218,1.8218,1.8218,1.8218,1.8218,1.8218,1.7438,1.7487,1.7524,1.7598,1.7644,1.7701,1.7734,1.778,1.7826,1.7899,1.7948,1.7991,1.8053,1.8121,1.8176,1.8194,1.8215,1.8205,1.8228,1.8237,1.8241,1.8245,1.8235,1.8209,1.8209,1.8212,1.8212,1.8212]},{"header":{"parameterUnit":"m.s-1","parameterCategory":1,"la1":30.2991,"la2":30.254,"lo1":-89.0895,"lo2":-89.0444,"dy":0.0017,"dx":0.0017,"nx":28,"ny":28,"refTime":"2025-06-13T21:00:00:Z","depth":0,"parameterNumber":3,"parameterNumberName":"V-component_of_WINDS"},"data":[0,0,0,0,0,0,0,0,0,0,0,0,0,0,0,0,0,0,0,0,0,0,0,0,0,0,0,0,0,0,0,0,0,0,0,0,0,0,0,0,0,0,0,0,0,0,0,0,0,0,0,0,0,0,0,0,0,0,4.0453,4.0453,0,4.0486,4.0487,4.0487,4.0504,4.0504,4.0504,4.0504,4.0535,4.0536,4.0536,0,0,0,0,0,0,0,0,0,0,0,0,0,4.0398,4.0399,4.0453,4.0453,4.0453,4.0486,4.0487,4.0487,4.0504,4.0504,4.0504,4.0504,4.0535,4.0536,4.0537,0,0,0,0,0,0,0,0,0,0,0,0,0,4.0426,4.0399,4.0452,4.0466,4.0467,4.0486,4.0487,4.0487,4.0504,4.0504,4.0504,4.0504,4.0534,4.0535,4.0537,4.0544,0,0,4.054,4.0541,0,0,0,0,0,0,0,0,4.0424,4.0428,4.0463,4.0465,4.0467,4.0491,4.0479,4.0506,4.0504,4.049,4.0504,4.0504,4.052,4.0522,4.0529,4.0546,4.0547,4.0541,4.0541,4.0542,4.0542,0,0,0,0,0,0,0,4.0422,4.0426,4.0466,4.0464,4.0466,4.0468,4.0472,4.0484,4.0504,4.0491,4.0492,4.0496,4.0521,4.0527,4.0529,4.0547,4.0541,4.0542,4.0542,4.0543,4.0572,4.0572,0,0,0,0,0,0,4.0419,4.0425,4.0465,4.0467,4.0445,4.0469,4.0474,4.0483,4.0504,4.0508,4.0496,4.0497,4.0525,4.0528,4.0531,4.0541,4.0542,4.0543,4.0544,4.0572,4.0572,4.0572,0,0,0,0,0,0,4.0417,4.0422,4.0463,4.0446,4.0452,4.047,4.0481,4.0484,4.049,4.0508,4.0511,4.0499,4.0525,4.0529,4.0541,4.0542,4.0544,4.0545,4.0572,4.0572,4.0572,4.0561,0,0,0,0,0,0,4.0416,4.0422,4.0426,4.0446,4.0452,4.0474,4.0481,4.0484,4.0493,4.0494,4.0512,4.0515,4.0526,4.0539,4.0542,4.0544,4.0546,4.0572,4.0572,4.0572,4.0561,4.0561,4.056,0,0,0,0,0,4.0414,4.0421,4.0426,4.043,4.0458,4.0474,4.0478,4.0491,4.0493,4.0496,4.0508,4.0515,4.0541,4.054,4.0544,4.0546,4.0572,4.0572,4.0572,4.0562,4.0561,4.056,0,0,0,0,0,0,4.0399,4.0424,4.043,4.0444,4.0457,4.0477,4.0482,4.049,4.0502,4.0502,4.0516,4.052,4.0531,4.0539,4.0538,4.0554,4.0557,4.0558,4.0548,4.0547,4.0547,4.0545,4.0547,0,0,0,0,0,4.0397,4.0409,4.043,4.044,4.0447,4.0463,4.0471,4.048,4.0493,4.0499,4.0511,4.0523,4.0534,4.0541,4.0552,4.0562,4.0566,4.0565,4.0565,4.0564,4.0565,4.057,4.057,4.0572,4.0572,4.0572,0,0,4.0394,4.0409,4.0415,4.0437,4.0449,4.046,4.0468,4.0479,4.0487,4.05,4.0513,4.0522,4.0536,4.0547,4.0552,4.0554,4.0565,4.0564,4.0564,4.0565,4.057,4.057,4.057,4.0572,4.0572,4.0572,0,0,4.0393,4.0406,4.0416,4.0427,4.0445,4.0456,4.0458,4.0477,4.0484,4.0497,4.0507,4.0516,4.0535,4.0545,4.0552,4.0555,4.0561,4.0558,4.0554,4.0559,4.0559,4.0559,4.056,4.056,4.0558,4.0558,4.0558,0,4.0387,4.0405,4.042,4.0431,4.044,4.0453,4.0462,4.0472,4.0492,4.0497,4.0499,4.0523,4.0534,4.0547,4.0548,4.0553,4.0555,4.0556,4.0558,4.0558,4.0558,4.0559,4.0559,4.0557,4.0557,4.0558,4.0558,0,4.0396,4.0408,4.0414,4.0434,4.0443,4.0453,4.0468,4.0476,4.0484,4.0494,4.0506,4.0519,4.0533,4.0537,4.0544,4.0551,4.0552,4.0556,4.0559,4.0558,4.0559,4.0559,4.0557,4.0557,4.0557,4.0557,0,0,4.0387,4.0415,4.0417,4.0426,4.0446,4.0455,4.0465,4.048,4.0486,4.0499,4.0507,4.0522,4.0526,4.0535,4.0543,4.0547,4.0548,4.0551,4.0552,4.055,4.0556,4.0553,4.0553,4.0553,4.0553,4.0553,4.0555,0,4.039,4.041,4.0423,4.0438,4.0449,4.0461,4.047,4.0482,4.0492,4.0501,4.0511,4.0522,4.0527,4.0532,4.0537,4.0547,4.055,4.0547,4.0559,4.056,4.0556,4.0553,4.055,4.0551,4.0555,4.0555,4.0555,0,4.0396,4.0409,4.0425,4.0444,4.0449,4.0456,4.0471,4.048,4.0494,4.05,4.051,4.0518,4.0528,4.053,4.0544,4.0542,4.0547,4.0553,4.0553,4.0555,4.0557,4.0555,4.0552,4.0552,4.0556,4.0556,4.0556,0,4.0388,4.041,4.0422,4.043,4.0451,4.0456,4.0465,4.0479,4.0487,4.0499,4.0504,4.0516,4.0523,4.0531,4.0543,4.0543,4.0554,4.0558,4.0559,4.0559,4.0561,4.0561,4.0559,4.0565,4.0565,4.0565,4.0565,0,4.0389,4.0398,4.0419,4.0427,4.0437,4.0451,4.046,4.047,4.0482,4.0491,4.0501,4.0509,4.0523,4.0532,4.0541,4.055,4.0553,4.0558,4.056,4.0557,4.0556,4.0561,4.0561,4.0565,4.0565,4.0565,4.0565,0,4.0383,4.0397,4.0411,4.043,4.0435,4.0442,4.0458,4.0465,4.0475,4.0486,4.0489,4.0504,4.0515,4.0527,4.0542,4.0548,4.0556,4.056,4.0552,4.0554,4.0554,4.0554,4.0556,4.0556,4.0561,4.0561,4.0561,0,4.0383,4.039,4.0411,4.0418,4.0427,4.0438,4.0446,4.046,4.0468,4.0484,4.0489,4.0501,4.0511,4.0528,4.054,4.0551,4.0554,4.0554,4.0556,4.0552,4.0554,4.0553,4.0554,4.0553,4.0553,4.0553,4.0553,0,4.0381,4.0388,4.04,4.0415,4.0424,4.0436,4.0448,4.0453,4.0468,4.0476,4.0489,4.0497,4.0512,4.0524,4.0536,4.0544,4.0551,4.0552,4.0553,4.055,4.0546,4.0548,4.0551,4.0552,4.0552,4.0552,4.0552,4.0552,4.0378,4.0385,4.0401,4.0413,4.0424,4.0435,4.0443,4.0454,4.0464,4.0479,4.0486,4.0497,4.051,4.0528,4.0535,4.0544,4.0546,4.0547,4.0547,4.0548,4.0547,4.0544,4.0546,4.0546,4.0546,4.0546,4.0546,0,4.0377,4.0388,4.0399,4.0416,4.0426,4.0433,4.0446,4.0453,4.0464,4.0476,4.0486,4.0499,4.051,4.0522,4.0534,4.0538,4.0542,4.0541,4.0541,4.0542,4.0544,4.0542,4.0538,4.0538,4.0538,4.0538,4.0538,4.0538,4.0378,4.039,4.0398,4.0416,4.0426,4.0438,4.0445,4.0455,4.0464,4.0479,4.0489,4.0497,4.0508,4.0521,4.0531,4.0534,4.0538,4.0536,4.054,4.0542,4.0542,4.0543,4.0541,4.0537,4.0537,4.0537,4.0537,4.0537]}]]